| time (UTC) | temp C | wind direction | speed KPH | gust KPH | rain 1hr cm | rain 24hr cm | rain mn cm | humidity % | barometer mb |
| 20260504050537 | 9 | 0.0 | 0.0 | 0.00 | 0.05 | 0.00 | 40 | 1015.2 | |
| 20260504045537 | 9 | 0.0 | 0.0 | 0.00 | 0.05 | 0.00 | 39 | 1015.3 | |
| 20260504044517 | 9 | 0.0 | 0.0 | 0.00 | 0.05 | 0.00 | 40 | 1015.4 | |
| 20260504043544 | 10 | 0.0 | 0.0 | 0.00 | 0.05 | 0.00 | 41 | 1015.3 | |
| 20260504042517 | 10 | 0.0 | 0.0 | 0.00 | 0.05 | 0.00 | 42 | 1015.3 | |
| 20260504041517 | 10 | 0.0 | 0.0 | 0.00 | 0.05 | 0.00 | 42 | 1015.3 | |
| 20260504040517 | 10 | 0.0 | 0.0 | 0.00 | 0.05 | 0.00 | 43 | 1015.2 | |
| 20260504035516 | 10 | 0.0 | 0.0 | 0.00 | 0.05 | 0.05 | 43 | 1015.2 | |
| 20260504034516 | 10 | 0.0 | 0.0 | 0.00 | 0.05 | 0.05 | 45 | 1015.1 | |
| 20260504033516 | 10 | 0.0 | 0.0 | 0.00 | 0.05 | 0.05 | 46 | 1015.2 | |
| 20260504032556 | 10 | 0.0 | 0.0 | 0.00 | 0.05 | 0.05 | 46 | 1015.3 | |
| 20260504031516 | 10 | 0.0 | 0.0 | 0.00 | 0.05 | 0.05 | 48 | 1015.2 | |
| 20260504030516 | 10 | 0.0 | 0.0 | 0.00 | 0.05 | 0.05 | 48 | 1015.2 | |
| 20260504025516 | 10 | 0.0 | 0.0 | 0.00 | 0.05 | 0.05 | 48 | 1015.1 | |
| 20260504024516 | 10 | 0.0 | 0.0 | 0.00 | 0.05 | 0.05 | 50 | 1015.1 | |
| 20260504023516 | 11 | 0.0 | 0.0 | 0.00 | 0.05 | 0.05 | 52 | 1015.1 | |
| 20260504022516 | 11 | 0.0 | 0.0 | 0.00 | 0.05 | 0.05 | 53 | 1014.9 | |
| 20260504021536 | 11 | 0.0 | 0.0 | 0.00 | 0.05 | 0.05 | 53 | 1014.8 | |
| 20260504020516 | 11 | 0.0 | 0.0 | 0.00 | 0.05 | 0.05 | 55 | 1014.7 | |
| 20260504015516 | 11 | 0.0 | 0.0 | 0.00 | 0.05 | 0.05 | 58 | 1014.6 | |
| 20260504014516 | 12 | 0.0 | 0.0 | 0.00 | 0.05 | 0.05 | 59 | 1014.6 | |
| 20260504013516 | 12 | 0.0 | 0.0 | 0.00 | 0.05 | 0.05 | 61 | 1014.4 | |
| 20260504012516 | 12 | 0.0 | 0.0 | 0.00 | 0.05 | 0.05 | 63 | 1014.5 | |
| 20260504011516 | 12 | 0.0 | 0.0 | 0.00 | 0.05 | 0.05 | 65 | 1014.4 | |
| 20260504010516 | 13 | 0.0 | 0.0 | 0.00 | 0.05 | 0.05 | 66 | 1014.3 | |
| 20260504005516 | 13 | 0.0 | 0.0 | 0.00 | 0.08 | 0.05 | 68 | 1014.2 | |
| 20260504004516 | 13 | 0.0 | 0.0 | 0.00 | 0.13 | 0.05 | 68 | 1014.2 | |
| 20260504003516 | 14 | 0.0 | 0.0 | 0.00 | 0.15 | 0.05 | 68 | 1014.2 | |
| 20260504002516 | 15 | 0.0 | 0.0 | 0.00 | 0.20 | 0.05 | 68 | 1014.2 | |
| 20260504001516 | 15 | 0.0 | 0.0 | 0.00 | 0.20 | 0.05 | 68 | 1014.2 | |
| 20260504000516 | 16 | 0.0 | 0.0 | 0.00 | 0.20 | 0.05 | 67 | 1014.2 | |
| 20260503235516 | 16 | 0.0 | 0.0 | 0.00 | 0.20 | 0.05 | 64 | 1014.2 | |
| 20260503234516 | 16 | 0.0 | 0.0 | 0.00 | 0.20 | 0.05 | 60 | 1014.2 | |
| 20260503233517 | 17 | 0.0 | 0.0 | 0.00 | 0.20 | 0.05 | 60 | 1014.2 | |
| 20260503232516 | 17 | 0.0 | 0.0 | 0.00 | 0.20 | 0.05 | 59 | 1014.3 | |
| 20260503231616 | 18 | 0.0 | 0.0 | 0.00 | 0.20 | 0.05 | 59 | 1014.4 | |
| 20260503230516 | 18 | 0.0 | 1.6 | 0.00 | 0.20 | 0.05 | 59 | 1014.4 | |
| 20260503225516 | 19 | 0.0 | 1.6 | 0.00 | 0.20 | 0.05 | 51 | 1014.6 | |
| 20260503224516 | 20 | 0.0 | 3.2 | 0.00 | 0.20 | 0.05 | 50 | 1014.6 | |
| 20260503223535 | 20 | 0.0 | 1.6 | 0.00 | 0.20 | 0.05 | 49 | 1014.6 | |
| 20260503222515 | 20 | 180 | 1.6 | 4.8 | 0.00 | 0.20 | 0.05 | 46 | 1014.6 |
| 20260503221516 | 20 | 0.0 | 3.2 | 0.00 | 0.20 | 0.05 | 47 | 1014.6 | |
| 20260503220515 | 21 | 225 | 1.6 | 4.8 | 0.00 | 0.20 | 0.05 | 50 | 1014.6 |
| 20260503215515 | 21 | 225 | 1.6 | 8.0 | 0.00 | 0.20 | 0.05 | 42 | 1014.6 |
| 20260503214515 | 21 | 0.0 | 3.2 | 0.00 | 0.20 | 0.05 | 42 | 1014.6 | |
| 20260503213540 | 20 | 203 | 1.6 | 6.4 | 0.00 | 0.20 | 0.05 | 44 | 1014.6 |
| 20260503212515 | 21 | 158 | 1.6 | 8.0 | 0.00 | 0.20 | 0.05 | 42 | 1014.8 |
| 20260503211517 | 21 | 203 | 1.6 | 6.4 | 0.00 | 0.20 | 0.05 | 48 | 1014.7 |
| 20260503210538 | 21 | 225 | 1.6 | 6.4 | 0.00 | 0.20 | 0.05 | 43 | 1014.8 |
| 20260503205517 | 21 | 113 | 1.6 | 8.0 | 0.00 | 0.20 | 0.05 | 48 | 1015.0 |
| 20260503204517 | 21 | 158 | 1.6 | 8.0 | 0.00 | 0.20 | 0.05 | 47 | 1015.1 |
| 20260503203517 | 21 | 0.0 | 3.2 | 0.00 | 0.20 | 0.05 | 43 | 1015.1 | |
| 20260503202517 | 21 | 180 | 1.6 | 8.0 | 0.00 | 0.20 | 0.05 | 43 | 1015.3 |
| 20260503201537 | 21 | 90 | 1.6 | 11.3 | 0.00 | 0.20 | 0.05 | 47 | 1015.5 |
| 20260503200517 | 20 | 0.0 | 4.8 | 0.00 | 0.20 | 0.05 | 44 | 1015.8 | |
| 20260503195517 | 20 | 180 | 1.6 | 6.4 | 0.00 | 0.20 | 0.05 | 52 | 1016.0 |
| 20260503194524 | 20 | 158 | 1.6 | 8.0 | 0.00 | 0.20 | 0.05 | 47 | 1016.1 |
| 20260503193517 | 20 | 315 | 1.6 | 8.0 | 0.00 | 0.20 | 0.05 | 46 | 1016.2 |
| 20260503192517 | 20 | 0.0 | 3.2 | 0.00 | 0.20 | 0.05 | 47 | 1016.5 | |
| 20260503191537 | 20 | 0.0 | 3.2 | 0.00 | 0.20 | 0.05 | 48 | 1016.7 | |
| 20260503190517 | 20 | 0.0 | 1.6 | 0.00 | 0.20 | 0.05 | 55 | 1016.9 | |
| 20260503185522 | 19 | 0.0 | 1.6 | 0.00 | 0.20 | 0.05 | 47 | 1017.0 | |
| 20260503184517 | 20 | 293 | 1.6 | 6.4 | 0.00 | 0.20 | 0.05 | 48 | 1017.1 |
| 20260503183517 | 19 | 315 | 1.6 | 8.0 | 0.00 | 0.20 | 0.05 | 46 | 1017.1 |
| 20260503182617 | 19 | 0.0 | 8.0 | 0.00 | 0.20 | 0.05 | 52 | 1017.2 | |
| 20260503181517 | 19 | 45 | 1.6 | 8.0 | 0.00 | 0.20 | 0.05 | 46 | 1017.2 |
| 20260503180517 | 19 | 248 | 1.6 | 8.0 | 0.00 | 0.20 | 0.05 | 46 | 1017.3 |
| 20260503175517 | 19 | 293 | 1.6 | 12.9 | 0.00 | 0.20 | 0.05 | 49 | 1017.3 |
| 20260503174517 | 18 | 315 | 3.2 | 11.3 | 0.00 | 0.20 | 0.05 | 55 | 1017.4 |
| 20260503173537 | 18 | 0.0 | 1.6 | 0.00 | 0.20 | 0.05 | 55 | 1017.5 | |
| 20260503172517 | 18 | 270 | 1.6 | 8.0 | 0.00 | 0.20 | 0.05 | 53 | 1017.7 |
| 20260503171517 | 17 | 0.0 | 3.2 | 0.00 | 0.20 | 0.05 | 51 | 1017.7 | |
| 20260503170517 | 17 | 0.0 | 1.6 | 0.00 | 0.20 | 0.05 | 57 | 1017.9 | |
| 20260503150536 | 16 | 203 | 1.6 | 6.4 | 0.00 | 0.20 | 0.05 | 59 | 1018.8 |
| 20260503130536 | 9 | 0.0 | 1.6 | 0.03 | 0.20 | 0.05 | 18 | 1018.0 | |
| 20260503110536 | 6 | 0.0 | 0.0 | 0.00 | 0.30 | 0.03 | 26 | 1016.8 | |
| 20260503081516 | 7 | 0.0 | 0.0 | 0.00 | 0.53 | 0.03 | 25 | 1015.0 | |
| 20260503080516 | 7 | 0.0 | 0.0 | 0.00 | 0.53 | 0.03 | 24 | 1014.9 | |
| 20260503072515 | 8 | 0.0 | 0.0 | 0.00 | 0.56 | 0.03 | 22 | 1014.5 | |
| 20260503071516 | 8 | 0.0 | 0.0 | 0.00 | 0.56 | 0.03 | 22 | 1014.4 | |
| 20260503070516 | 8 | 0.0 | 0.0 | 0.00 | 0.56 | 0.03 | 22 | 1014.3 | |
| 20260503054517 | 9 | 0.0 | 0.0 | 0.03 | 0.56 | 0.03 | 22 | 1014.2 | |
| 20260503053538 | 9 | 0.0 | 0.0 | 0.03 | 0.56 | 0.03 | 22 | 1014.3 | |
| 20260503052517 | 9 | 0.0 | 0.0 | 0.03 | 0.56 | 0.03 | 22 | 1014.3 |